CW9259 Weather Reports


Display with metric or nautical units.
time (UTC)temp
F
wind
direction
speed
MPH
gust
MPH
rain 1hr
in
rain 24hr
in
rain mn
in
humidity
%
barometer
mb
20260903144557 90 119 0.0 5.0 0.00 0.00 0.00 40 1015.2
20260903143135 89 120 0.0 7.0 0.00 0.00 0.00 40 1015.3
20260903141600 89 201 0.0 7.0 0.00 0.00 0.00 41 1015.3
20260903140134 88 221 3.0 6.0 0.00 0.00 0.00 42 1015.5
20260903134559 88 128 4.0 10.0 0.00 0.00 0.00 43 1015.6
20260903133126 88 27 2.0 8.0 0.00 0.00 0.00 44 1015.6
20260903131558 88 145 2.0 5.0 0.00 0.00 0.00 43 1015.7
20260903130123 87 184 4.0 10.0 0.00 0.00 0.00 44 1015.9
20260903124603 87 156 2.0 9.0 0.00 0.00 0.00 48 1015.8
20260903123137 87 121 3.0 9.0 0.00 0.00 0.00 47 1015.8
20260903121556 86 130 6.0 11.0 0.00 0.00 0.00 45 1016.1
20260903120140 86 74 2.0 9.0 0.00 0.00 0.00 48 1016.0
20260903114617 86 144 5.0 10.0 0.00 0.00 0.00 48 1016.3
20260903113140 85 32 5.0 9.0 0.00 0.00 0.00 47 1016.3
20260903111616 85 128 1.0 8.0 0.00 0.00 0.00 51 1016.3
20260903110131 85 150 2.0 9.0 0.00 0.00 0.00 50 1016.5
20260903104606 85 144 4.0 9.0 0.00 0.00 0.00 53 1016.7
20260903103124 84 129 4.0 7.0 0.00 0.00 0.00 51 1017.0
20260903101600 84 101 4.0 7.0 0.00 0.00 0.00 51 1017.3
20260903100141 84 123 4.0 8.0 0.00 0.00 0.00 51 1017.3
20260903094602 83 88 1.0 8.0 0.00 0.00 0.00 54 1017.4
20260903093130 81 195 4.0 6.0 0.00 0.00 0.00 54 1017.5
20260903091558 81 95 3.0 5.0 0.00 0.00 0.00 55 1017.6
20260903090128 79 103 2.0 7.0 0.00 0.00 0.00 61 1017.7
20260903084558 78 161 0.0 7.0 0.00 0.00 0.00 60 1017.6
20260903083104 78 130 2.0 6.0 0.00 0.00 0.00 66 1017.6
20260903081558 76 136 0.0 6.0 0.00 0.00 0.00 64 1017.6
20260903080129 75 51 0.0 4.0 0.00 0.00 0.00 62 1017.5
20260903074557 74 32 1.0 3.0 0.00 0.00 0.00 65 1017.3
20260903073139 73 10 0.0 2.0 0.00 0.00 0.00 64 1017.2
20260903071626 71 355 1.0 2.0 0.00 0.00 0.00 66 1017.2
20260903070145 70 355 0.0 3.0 0.00 0.00 0.00 67 1017.2
20260903064605 68 345 1.0 3.0 0.00 0.00 0.00 70 1017.2
20260903063119 66 9 3.0 5.0 0.00 0.00 0.00 72 1017.1
20260903061607 64 5 1.0 3.0 0.00 0.00 0.00 82 1016.8
20260903054558 61 360 0.0 0.0 0.00 0.00 0.00 87 1016.6
20260903053130 60 321 0.0 0.0 0.00 0.00 0.00 89 1016.4
20260903051558 60 321 0.0 0.0 0.00 0.00 0.00 91 1016.3
20260903050141 60 321 0.0 0.0 0.00 0.00 0.00 90 1016.2
20260903044603 60 321 0.0 0.0 0.00 0.00 0.00 90 1016.0
20260903041609 61 321 0.0 0.0 0.00 0.00 0.00 90 1015.9
20260903040133 62 321 0.0 0.0 0.00 0.00 0.00 91 1016.0
20260903034608 62 321 0.0 1.0 0.00 0.00 0.00 91 1015.9
20260903033138 62 320 0.0 0.0 0.00 0.00 0.00 90 1016.0
20260903031558 62 320 0.0 0.0 0.00 0.00 0.00 89 1016.1
20260903030129 62 319 0.0 0.0 0.00 0.00 0.00 89 1016.0
20260903024600 62 318 0.0 0.0 0.00 0.00 0.00 90 1015.8
20260903023131 62 319 0.0 0.0 0.00 0.00 0.00 89 1015.9
20260903021559 62 319 0.0 0.0 0.00 0.00 0.00 90 1015.8
20260903021504 62 319 0.0 0.0 0.00 0.00 0.00 90 1015.9
20260903020130 62 316 0.0 0.0 0.00 0.00 0.00 90 1015.8
20260903014624 62 317 0.0 0.0 0.00 0.00 0.00 89 1015.7
20260903013146 62 317 0.0 0.0 0.00 0.00 0.00 90 1015.6
20260903011558 62 317 0.0 0.0 0.00 0.00 0.00 90 1015.6
20260903010131 63 317 0.0 0.0 0.00 0.00 0.00 89 1015.6
20260903004659 63 315 0.0 0.0 0.00 0.00 0.00 90 1015.6
20260903003134 63 318 0.0 0.0 0.00 0.00 0.00 89 1015.6
20260903001558 63 319 0.0 0.0 0.00 0.00 0.00 89 1015.6
20260903000131 63 319 0.0 0.0 0.00 0.00 0.00 88 1015.6
20260902234605 64 329 0.0 0.0 0.00 0.00 0.00 88 1015.7
20260902233134 64 329 0.0 0.0 0.00 0.00 0.00 88 1015.7
20260902231558 64 318 0.0 0.0 0.00 0.00 0.00 88 1015.6
20260902230001 64 314 0.0 0.0 0.00 0.00 0.00 88 1015.4
20260902224612 64 315 0.0 0.0 0.00 0.00 0.00 88 1015.4
20260902223138 65 314 0.0 0.0 0.00 0.00 0.00 87 1015.4
20260902221605 65 314 0.0 0.0 0.00 0.00 0.00 86 1015.4
20260902220143 66 317 0.0 2.0 0.00 0.00 0.00 86 1015.3
20260902214619 66 316 0.0 4.0 0.00 0.00 0.00 86 1015.2
20260902213136 66 314 0.0 2.0 0.00 0.00 0.00 86 1015.1
20260902211558 66 314 1.0 3.0 0.00 0.00 0.00 86 1015.1
20260902210159 67 317 0.0 2.0 0.00 0.00 0.00 85 1015.0
20260902204607 67 318 0.0 3.0 0.00 0.00 0.00 85 1015.0
20260902203134 67 331 1.0 3.0 0.00 0.00 0.00 85 1015.1
20260902201626 67 165 0.0 0.0 0.00 0.00 0.00 85 1015.0
20260902200139 67 165 0.0 2.0 0.00 0.00 0.00 84 1014.9
20260902194558 68 159 1.0 3.0 0.00 0.00 0.00 84 1014.8
20260902193133 69 158 2.0 5.0 0.00 0.00 0.00 82 1014.7
20260902191558 69 238 1.0 3.0 0.00 0.00 0.00 81 1014.5
20260902190132 70 237 1.0 2.0 0.00 0.00 0.00 81 1014.3
20260902184558 71 237 1.0 3.0 0.00 0.00 0.00 79 1014.2
20260902183126 72 237 0.0 3.0 0.00 0.00 0.00 77 1014.0
20260902181602 73 327.0 255.0 0.00 0.00 0.00 77 1013.9
20260902180142 74 327.0 255.0 0.00 0.00 0.00 76 1014.0
20260902174559 76 327.0 255.0 0.00 0.00 0.00 72 1013.8
20260902173129 79 327.0 255.0 0.00 0.00 0.00 68 1013.7
20260902171558 80 327.0 255.0 0.00 0.00 0.00 67 1013.6
20260902170200 82 327.0 255.0 0.00 0.00 0.00 65 1013.6
20260902164601 84 327.0 255.0 0.00 0.00 0.00 61 1013.4
20260902163141 86 327.0 255.0 0.00 0.00 0.00 52 1013.5
20260902161559 87 327.0 255.0 0.00 0.00 0.00 53 1013.5
20260902160130 87 327.0 255.0 0.00 0.00 0.00 51 1013.6
20260902154602 86 327.0 255.0 0.00 0.00 0.00 53 1013.7
20260902153130 86 327.0 255.0 0.00 0.00 0.00 54 1014.0
20260902151700 86 327.0 255.0 0.00 0.00 0.00 53 1013.9
20260902150059 85 327.0 255.0 0.00 0.00 0.00 54 1014.1
20260902150001 85 327.0 255.0 0.00 0.00 0.00 55 1014.1